Weather in Vakhrushevo

Russia / Yaroslavl Oblast     57°18′05″N   39°35′14″E
temp.,
°C
wind,
m/s
gust,
m/s
humid.,
%
clouds,
%
prec.,
mm/h
press.,
hPa
HPBL,
m
17 april, sat
sat1700:00+8ene6127496 0.0 1026447
03:00+5ene6128061 0.0 1026375
06:00+4ene512805 0.0 1026365
09:00+8e796337 0.0 1027562
12:00+12ene894814 0.0 1026950
15:00+14ene79395 0.0 10261123
18:00+12ene610444 0.0 1025913
21:00+8ene512625 0.0 1026313
18 april, sun
sun1800:00+6ene512740 0.0 1026326
03:00+4ene412810 0.0 1026307
06:00+3ene512820 0.0 1026337
09:00+8ene711614 0.0 1025938
12:00+12ene89455 0.0 10251573
15:00+13ene89396 0.0 10251948
18:00+11ene7105126 0.0 10251279
21:00+6ene7127543 0.0 1027548
19 april, mon
mon1900:00+4ene6118079 0.0 1028512
03:00+3ene51075100 0.0 1029513
06:00+3ene61067100 0.0 1029542
09:00+4e7859100 0.0 1030766
12:00+7e7848100 0.0 10301235
15:00+8e7844100 0.0 10291588
18:00+7e6945100 0.0 10291561
21:00+4e4115254 0.0 1030300
20 april, tue
tue2000:00+2e5125976 0.0 1030388
03:00+1ene5126268 0.0 1029408
06:00+1e6126491 0.0 1028650
09:00+3e7106781 0.1 1027848
12:00+7ese71057100 0.0 10261356
15:00+7se71064100 0.0 10251240
18:00+8ese61255100 0.1 10221417
21:00+7e81452100 0.1 1020866
21 april, wed
wed2100:00+6ese91553100 0.0 10161027
03:00+3e102086100 2.8 10121037
06:00+3ese91893100 6.3 1009967
09:00+5ese91791100 6.8 1007892
12:00+6se91790100 1.0 10061137
15:00+7se91691100 1.8 10051133
18:00+7se91491100 1.7 10031231
21:00+4sse71297100 2.1 1006899